Inver Grove Heights, MN

11:54 PM CST on February 09, 2016 (GMT -0600)
South Saint Paul Municipal-Fleming

Weather History for KSGS - July, 2013

Change the Weather History Date:

Tuesday, July 23, 2013

  Actual Average (KMSP) Record (KMSP)
Temperature  
Mean Temperature 70 °F 74 °F  
Max Temperature 76 °F 83 °F 105 °F (1934)
Min Temperature 64 °F 64 °F 47 °F (1876)
Degree Days  
Heating Degree Days 0 0  
Month to date heating degree days 0  
Since 1 June heating degree days 44  
Since 1 July heating degree days 0  
Cooling Degree Days 5 9  
Month to date cooling degree days 205  
Year to date cooling degree days 405  
Since 1 June cooling degree days 363  
Growing Degree Days 20 (Base 50)    
Moisture  
Dew Point 52 °F    
Average Humidity 52    
Maximum Humidity 71    
Minimum Humidity 37    
Precipitation  
Precipitation 0.00 in 0.12 in 9.15 in (1987)
Month to date precipitation 2.95  
Year to date precipitation 16.78  
Snow  
Snow 0.00 in 0.00 in 0.00 in ()
Month to date snowfall 0.0  
Since 1 June snowfall 0.0  
Since 1 July snowfall 0.0  
Snow Depth -    
Sea Level Pressure  
Sea Level Pressure 29.96 in    
Wind  
Wind Speed 7 mph (North)    
Max Wind Speed 14 mph    
Max Gust Speed 22 mph    
Visibility 10 miles    
Events      
T = Trace of Precipitation, MM = Missing Value Source: NWS Daily Summary

Daily Weather History Graph

Daily Weather History Graph

Search for Another Location

Airport or City:

Trip Planner

Search our weather history database for the weather conditions in past years. The results will help you decide how hot, cold, wet, or windy it might be!

Date:

Astronomy

Jul. 23, 2013 Rise Set
Actual Time 5:48 AM CDT 8:48 PM CDT
Civil Twilight 5:13 AM CDT 9:22 PM CDT
Nautical Twilight 4:29 AM CDT 10:07 PM CDT
Astronomical Twilight 3:35 AM CDT 10:59 PM CDT
Moon 9:09 PM CDT (7/23) 7:03 AM CDT (7/23)
Length of Visible Light 16h 09m
Length of Day
14h 59m
Full, 99% of the Moon is Illuminated
Jul 23
Full
Jul 29
Last Quarter
Aug 6
New
Aug 14
First Quarter
Aug 20
Full

Hourly Weather History & Observations

Time (CDT) Temp. Dew Point Humidity Pressure Visibility Wind Dir Wind Speed Gust Speed Precip Events Conditions
12:13 AM 70.9 °F 55.4 °F 58% 29.86 in 10.0 mi NNW 9.2 mph - N/A   Clear
12:33 AM 70.2 °F 54.5 °F 57% 29.86 in 10.0 mi North 6.9 mph - N/A   Clear
12:53 AM 69.8 °F 54.0 °F 57% 29.86 in 10.0 mi North 8.1 mph - N/A   Clear
1:13 AM 69.6 °F 53.6 °F 57% 29.86 in 10.0 mi NNW 6.9 mph - N/A   Clear
1:33 AM 69.4 °F 53.8 °F 57% 29.85 in 10.0 mi North 8.1 mph - N/A   Clear
1:53 AM 69.3 °F 53.4 °F 57% 29.85 in 10.0 mi North 5.8 mph - N/A   Clear
2:13 AM 68.7 °F 52.3 °F 56% 29.86 in 10.0 mi NNW 5.8 mph - N/A   Clear
2:33 AM 68.5 °F 52.0 °F 55% 29.86 in 10.0 mi North 8.1 mph - N/A   Clear
2:53 AM 68.4 °F 52.3 °F 57% 29.87 in 10.0 mi North 9.2 mph - N/A   Clear
3:13 AM 68.0 °F 52.3 °F 57% 29.88 in 10.0 mi North 8.1 mph - N/A   Clear
3:33 AM 67.3 °F 52.9 °F 60% 29.88 in 10.0 mi North 4.6 mph - N/A   Clear
3:53 AM 66.6 °F 53.2 °F 62% 29.89 in 10.0 mi North 4.6 mph - N/A   Clear
4:13 AM 66.4 °F 53.1 °F 62% 29.88 in 10.0 mi North 4.6 mph - N/A   Clear
4:33 AM 66.2 °F 53.1 °F 63% 29.90 in 10.0 mi Calm Calm - N/A   Clear
4:53 AM 65.5 °F 53.6 °F 65% 29.91 in 10.0 mi North 5.8 mph - N/A   Clear
5:13 AM 65.3 °F 54.0 °F 67% 29.91 in 10.0 mi North 6.9 mph - N/A   Clear
5:33 AM 64.8 °F 54.5 °F 69% 29.91 in 10.0 mi NNW 5.8 mph - N/A   Clear
5:53 AM 64.6 °F 54.7 °F 70% 29.92 in 10.0 mi North 5.8 mph - N/A   Clear
6:13 AM 64.4 °F 54.7 °F 71% 29.92 in 10.0 mi North 8.1 mph - N/A   Clear
6:33 AM 64.2 °F 54.7 °F 71% 29.93 in 10.0 mi North 6.9 mph - N/A   Clear
6:53 AM 64.6 °F 54.5 °F 70% 29.94 in 10.0 mi North 6.9 mph - N/A   Clear
7:13 AM 65.3 °F 53.6 °F 66% 29.94 in 10.0 mi North 6.9 mph - N/A   Clear
7:33 AM 65.5 °F 53.2 °F 65% 29.95 in 10.0 mi North 8.1 mph - N/A   Clear
7:53 AM 66.2 °F 52.9 °F 62% 29.97 in 10.0 mi North 8.1 mph - N/A   Clear
8:13 AM 66.6 °F 52.2 °F 60% 29.96 in 10.0 mi North 6.9 mph 16.1 mph N/A   Clear
8:33 AM 67.3 °F 52.2 °F 58% 29.97 in 10.0 mi NNE 10.4 mph - N/A   Clear
8:53 AM 68.0 °F 51.4 °F 55% 29.97 in 10.0 mi North 11.5 mph 18.4 mph N/A   Clear
9:13 AM 68.2 °F 51.6 °F 55% 29.96 in 10.0 mi NNE 10.4 mph - N/A   Clear
9:33 AM 68.9 °F 51.4 °F 54% 29.96 in 10.0 mi North 10.4 mph 19.6 mph N/A   Clear
9:53 AM 69.3 °F 50.5 °F 51% 29.97 in 10.0 mi North 11.5 mph 16.1 mph N/A   Clear
10:13 AM 69.1 °F 49.6 °F 50% 29.98 in 10.0 mi North 13.8 mph 21.9 mph N/A   Clear
10:33 AM 70.2 °F 49.3 °F 47% 30.00 in 10.0 mi North 11.5 mph 18.4 mph N/A   Clear
10:53 AM 70.5 °F 49.1 °F 47% 30.00 in 10.0 mi NNE 11.5 mph 16.1 mph N/A   Clear
11:13 AM 71.6 °F 49.5 °F 45% 30.00 in 10.0 mi NNE 12.7 mph 17.3 mph N/A   Clear
11:33 AM 70.9 °F 48.2 °F 44% 30.01 in 10.0 mi NNE 12.7 mph 18.4 mph N/A   Clear
11:53 AM 71.4 °F 48.4 °F 44% 30.00 in 10.0 mi NNE 8.1 mph 17.3 mph N/A   Clear
12:13 PM 72.1 °F 49.3 °F 44% 30.00 in 10.0 mi North 8.1 mph - N/A   Clear
12:33 PM 73.0 °F 49.6 °F 44% 30.00 in 10.0 mi NNE 8.1 mph - N/A   Clear
12:53 PM 73.2 °F 48.2 °F 41% 30.00 in 10.0 mi NNE 10.4 mph 16.1 mph N/A   Clear
1:13 PM 73.0 °F 49.5 °F 43% 30.00 in 10.0 mi North 6.9 mph - N/A   Clear
1:33 PM 73.4 °F 49.1 °F 42% 30.00 in 10.0 mi NNW 9.2 mph - N/A   Clear
1:53 PM 74.1 °F 50.4 °F 43% 30.00 in 10.0 mi NE 9.2 mph - N/A   Clear
2:13 PM 74.8 °F 51.4 °F 44% 30.00 in 10.0 mi ENE 8.1 mph - N/A   Clear
2:33 PM 75.0 °F 51.6 °F 44% 29.99 in 10.0 mi NNE 5.8 mph - N/A   Clear
2:53 PM 75.2 °F 50.4 °F 42% 30.00 in 10.0 mi North 3.5 mph - N/A   Clear
3:13 PM 74.7 °F 50.9 °F 43% 29.99 in 10.0 mi NE 4.6 mph - N/A   Clear
3:33 PM 76.1 °F 52.2 °F 43% 29.99 in 10.0 mi North 6.9 mph - N/A   Clear
3:53 PM 75.4 °F 50.7 °F 42% 29.98 in 10.0 mi North 9.2 mph - N/A   Clear
4:13 PM 76.3 °F 51.1 °F 41% 29.98 in 10.0 mi NNE 6.9 mph 19.6 mph N/A   Clear
4:33 PM 76.5 °F 50.0 °F 39% 29.98 in 10.0 mi NNE 3.5 mph - N/A   Clear
4:53 PM 76.3 °F 51.1 °F 41% 29.98 in 10.0 mi North 5.8 mph - N/A   Clear
5:13 PM 76.3 °F 50.5 °F 40% 29.98 in 10.0 mi North 6.9 mph - N/A   Clear
5:33 PM 76.1 °F 48.9 °F 38% 29.98 in 10.0 mi North 4.6 mph - N/A   Clear
5:53 PM 76.1 °F 49.3 °F 39% 29.98 in 10.0 mi North 8.1 mph - N/A   Clear
6:13 PM 76.3 °F 48.0 °F 37% 29.98 in 10.0 mi NE 8.1 mph - N/A   Clear
6:33 PM 76.1 °F 48.2 °F 37% 29.98 in 10.0 mi NE 6.9 mph - N/A   Clear
6:53 PM 75.7 °F 48.4 °F 38% 29.98 in 10.0 mi NNE 5.8 mph - N/A   Clear
7:13 PM 75.4 °F 48.6 °F 39% 29.99 in 10.0 mi NNE 4.6 mph - N/A   Clear
7:33 PM 75.2 °F 48.9 °F 39% 29.99 in 10.0 mi NE 8.1 mph - N/A   Clear
7:53 PM 74.5 °F 49.3 °F 41% 29.99 in 10.0 mi NE 4.6 mph - N/A   Clear
8:13 PM 74.3 °F 49.3 °F 41% 30.00 in 10.0 mi ENE 4.6 mph - N/A   Clear
8:33 PM 74.1 °F 49.3 °F 41% 29.99 in 10.0 mi NE 4.6 mph - N/A   Scattered Clouds
8:53 PM 73.4 °F 50.0 °F 44% 29.99 in 10.0 mi NE 3.5 mph - N/A   Scattered Clouds
9:13 PM 72.5 °F 50.4 °F 46% 30.00 in 10.0 mi Calm Calm - N/A   Scattered Clouds
9:33 PM 71.6 °F 51.6 °F 49% 30.00 in 10.0 mi Calm Calm - N/A   Scattered Clouds
9:53 PM 71.6 °F 52.2 °F 50% 30.01 in 10.0 mi Calm Calm - N/A   Scattered Clouds
10:13 PM 70.3 °F 52.5 °F 53% 30.01 in 10.0 mi Calm Calm - N/A   Scattered Clouds
10:33 PM 70.0 °F 52.9 °F 55% 30.01 in 10.0 mi Calm Calm - N/A   Clear
10:53 PM 69.1 °F 53.8 °F 58% 30.01 in 10.0 mi Calm Calm - N/A   Clear
11:13 PM 68.0 °F 56.3 °F 66% 30.02 in 10.0 mi Calm Calm - N/A   Clear
11:33 PM 66.9 °F 55.4 °F 66% 30.02 in 10.0 mi Calm Calm - N/A   Clear
11:53 PM 67.5 °F 54.9 °F 64% 30.03 in 10.0 mi Calm Calm - N/A   Clear